Etusivu
METAR-TAF:

METAR-TAF

Lentoasemat :

Port Angeles, Washington, Yhdysvallat

Leveyspiiri: 48-08-27N, Pituuspiiri: 123-24-39W, korkeus merenpinnasta: 4 m

Tämänhetkinen sää

Tämä raportti tehtiin 33 minuuttia sitten, kello 10.50 UTC
Tuuli 9 kn lännestä/lounaasta
Lämpötila 7°C
Kosteus 76%
Ilmanpaine 1021 hPa
Näkyvyys: 16.1 km
selkeää

METAR: KNOW 071050Z AUTO 24009KT 10SM CLR 07/03 A3015 RMK AO2 T00660031

Aika: 04:23 (11:23 UTC)


TAF: puuttuu

Säähavainnot ja -ennusteet yli 4000 lentoasemalta (METAR- ja TAF-raportit).

Käytössä olevat sääasemat on merkitty karttaan keltaisilla ja punaisilla pisteillä.

Aseta hiiri pisteen päälle nähdäksesi sääaseman nimen.

Klikkaa sitten nähdäksesi säähavainnot ja -ennusteet.

Kartan vaihtaminen: klikkaa mustalla rastilla varustettuja vihreitä pisteitä, niin voit zoomata sisään; viivalla varustettua vihreää pistettä, niin voit zoomata ulos tai vihreitä nuolia, niin pääset viereisille kartoille.


METAR-TAF: